Regional Weather Roundup
Issued by NWS

Home | Current Version | Previous Version | Graphics & Text | Print | Product List | Glossary On
Versions: 1 2 3 4 5 6 7 8 9 10 11 12 13 14 15 16 17 18 19 20 21 22 23 24 25 26 27 28 29 30 31 32 33 34 35 36 37 38 39 40 41 42 43 44 45 46 47 48 49 50
000
ASUS45 KBOI 200710
RWRID
WEATHER ROUNDUP FOR IDAHO
NATIONAL WEATHER SERVICE BOISE ID
100 AM MDT MON OCT 20 2014

NOTE: "FAIR" INDICATES FEW OR NO CLOUDS BELOW 12000 FEET
WITH NO SIGNIFICANT WEATHER AND/OR OBSTRUCTIONS TO VISIBILITY

IDZ012-014-200800-
SOUTHWEST IDAHO


CITY           SKY/WX    TMP DP  RH WIND       PRES   REMARKS
BOISE          CLEAR     60  30  32 SE13      29.84F
CALDWELL       CLEAR     46  34  61 E3        29.86F
MOUNTAIN HOME  CLEAR     59  34  39 SE15      29.87F
$$

IDZ016-017-200800-
SOUTHCENTRAL IDAHO


CITY           SKY/WX    TMP DP  RH WIND       PRES   REMARKS
BURLEY         CLEAR     48  35  60 E5        29.98R
JEROME         LGT RAIN  50  30  46 NE14      29.96S
TWIN FALLS     CLEAR     63  28  26 S15       29.94F
$$

IDZ019>023-200800-
SOUTHEAST IDAHO


CITY           SKY/WX    TMP DP  RH WIND       PRES   REMARKS
IDAHO FALLS    CLEAR     38  31  76 N5        30.06R WCI  34
POCATELLO      CLEAR     40  33  76 NW6       30.04S
REXBURG        CLEAR     38  31  76 NE3       30.07S
$$

IDZ006-010-011-018-031-032-200800-
CENTRAL IDAHO MOUNTAINS


CITY           SKY/WX    TMP DP  RH WIND       PRES   REMARKS
MCCALL         CLEAR     38  30  73 N3        29.95F
HAILEY         CLEAR     45  30  57 NW8       30.09R
STANLEY          N/A     32  24  72 CALM      30.10S
SALMON         NOT AVBL
CHALLIS        CLEAR     40  28  62 CALM      30.04R
$$

IDZ002-004-006-007-026-200800-
NORTHERN IDAHO


CITY           SKY/WX    TMP DP  RH WIND       PRES   REMARKS
LEWISTON       CLEAR     58  42  55 SE5       29.74F
LOWELL           N/A     47  45  93 NW3       29.89R
COEUR D`ALENE  CLEAR     48  46  93 E9        29.79F
MULLAN PASS    CLEAR     50  30  46 SE7       29.94F
$$


USA.gov is the U.S. government's official web portal to all federal, state and local government web resources and services.